Retour au catalogue

STARLINK-34322

ActifCommunicationsVLEO
NORAD 64702·PAYLOAD·🇺🇸 United States

Lancé Jun 28, 2025 depuis Vandenberg Space Force Base

Loading…

Prochains Passages (prochaines 24 heures)

TLE

FraisSource: CelesTrak SupGP

Époque: Sep 15, 2026, 03:12 UTC

1 64702C 25142G   26258.13381944 -.00047248  00000+0 -16438-2 0  2587
2 64702  70.0012 195.2471 0003000 271.5774 171.1123 15.29599212    18

Suivez STARLINK-34322 en temps réel avec AllMySat

Download on the App Store